Time,TemperatureF,DewpointF,PressureIn,WindDirection,WindDirectionDegrees,WindSpeedMPH,WindSpeedGustMPH,Humidity,HourlyPrecipIn,Conditions,Clouds,dailyrainin,SoftwareType,DateUTC
2013-04-12 00:12:00,32.0,-99.9,-100.00,North,-999,-999.0,-999.0,-999,0.00,,,0.00,,2013-04-12 06:12:00,
2013-04-12 00:22:00,32.0,-99.9,-100.00,North,-999,-999.0,-999.0,-999,0.00,,,0.00,,2013-04-12 06:22:00,
2013-04-12 00:32:00,32.0,-99.9,-100.00,North,-999,-999.0,-999.0,-999,0.00,,,0.00,,2013-04-12 06:32:00,
2013-04-12 00:42:00,32.0,-99.9,-100.00,North,-999,-999.0,-999.0,-999,0.00,,,0.00,,2013-04-12 06:42:00,
2013-04-12 01:12:00,29.0,-99.9,-100.00,North,-999,-999.0,-999.0,-999,0.01,,,-99.99,,2013-04-12 07:12:00,
2013-04-12 01:22:00,29.0,-99.9,-100.00,North,-999,-999.0,-999.0,-999,0.01,,,-99.99,,2013-04-12 07:22:00,
2013-04-12 01:32:00,29.0,-99.9,-100.00,North,-999,-999.0,-999.0,-999,0.01,,,-99.99,,2013-04-12 07:32:00,
2013-04-12 01:42:00,29.0,-99.9,-100.00,North,-999,-999.0,-999.0,-999,0.01,,,-99.99,,2013-04-12 07:42:00,
2013-04-12 02:12:00,27.0,-99.9,-100.00,North,-999,-999.0,-999.0,-999,0.02,,,0.03,,2013-04-12 08:12:00,
2013-04-12 02:22:00,27.0,-99.9,-100.00,North,-999,-999.0,-999.0,-999,0.02,,,0.03,,2013-04-12 08:22:00,
2013-04-12 02:33:00,27.0,-99.9,-100.00,North,-999,-999.0,-999.0,-999,0.02,,,0.03,,2013-04-12 08:33:00,
2013-04-12 02:43:00,27.0,-99.9,-100.00,North,-999,-999.0,-999.0,-999,0.02,,,0.03,,2013-04-12 08:43:00,
2013-04-12 03:12:00,26.0,-99.9,-100.00,North,-999,-999.0,-999.0,-999,0.00,,,0.03,,2013-04-12 09:12:00,
2013-04-12 03:22:00,26.0,-99.9,-100.00,North,-999,-999.0,-999.0,-999,0.00,,,0.03,,2013-04-12 09:22:00,
2013-04-12 03:33:00,26.0,-99.9,-100.00,North,-999,-999.0,-999.0,-999,0.00,,,0.03,,2013-04-12 09:33:00,
2013-04-12 03:44:00,26.0,-99.9,-100.00,North,-999,-999.0,-999.0,-999,0.00,,,0.03,,2013-04-12 09:44:00,
2013-04-12 04:23:00,26.0,-99.9,-100.00,North,-999,-999.0,-999.0,-999,0.00,,,0.03,,2013-04-12 10:23:00,
2013-04-12 04:34:00,26.0,-99.9,-100.00,North,-999,-999.0,-999.0,-999,0.00,,,0.03,,2013-04-12 10:34:00,
2013-04-12 04:43:00,26.0,-99.9,-100.00,North,-999,-999.0,-999.0,-999,0.00,,,0.03,,2013-04-12 10:43:00,
2013-04-12 05:13:00,22.0,-99.9,-100.00,North,-999,-999.0,-999.0,-999,0.00,,,0.03,,2013-04-12 11:13:00,
2013-04-12 05:22:00,22.0,-99.9,-100.00,North,-999,-999.0,-999.0,-999,0.00,,,0.03,,2013-04-12 11:22:00,
2013-04-12 05:33:00,22.0,-99.9,-100.00,North,-999,-999.0,-999.0,-999,0.00,,,0.03,,2013-04-12 11:33:00,
2013-04-12 05:43:00,22.0,-99.9,-100.00,North,-999,-999.0,-999.0,-999,0.00,,,0.03,,2013-04-12 11:43:00,
2013-04-12 06:13:00,21.0,-99.9,-100.00,North,-999,-999.0,-999.0,-999,0.01,,,-99.99,,2013-04-12 12:13:00,
2013-04-12 06:22:00,21.0,-99.9,-100.00,North,-999,-999.0,-999.0,-999,0.01,,,-99.99,,2013-04-12 12:22:00,
2013-04-12 06:33:00,21.0,-99.9,-100.00,North,-999,-999.0,-999.0,-999,0.01,,,-99.99,,2013-04-12 12:33:00,
2013-04-12 06:43:00,21.0,-99.9,-100.00,North,-999,-999.0,-999.0,-999,0.01,,,-99.99,,2013-04-12 12:43:00,
2013-04-12 07:13:00,19.0,-99.9,-100.00,North,-999,-999.0,-999.0,-999,0.01,,,0.05,,2013-04-12 13:13:00,
2013-04-12 07:22:00,19.0,-99.9,-100.00,North,-999,-999.0,-999.0,-999,0.01,,,0.05,,2013-04-12 13:22:00,
2013-04-12 07:33:00,19.0,-99.9,-100.00,North,-999,-999.0,-999.0,-999,0.01,,,0.05,,2013-04-12 13:33:00,
2013-04-12 07:43:00,19.0,-99.9,-100.00,North,-999,-999.0,-999.0,-999,0.01,,,0.05,,2013-04-12 13:43:00,
2013-04-12 08:13:00,20.0,-99.9,-100.00,North,-999,-999.0,-999.0,-999,0.00,,,-99.99,,2013-04-12 14:13:00,
2013-04-12 08:23:00,20.0,-99.9,-100.00,North,-999,-999.0,-999.0,-999,0.00,,,-99.99,,2013-04-12 14:23:00,
2013-04-12 08:33:00,20.0,-99.9,-100.00,North,-999,-999.0,-999.0,-999,0.00,,,-99.99,,2013-04-12 14:33:00,
2013-04-12 08:43:00,20.0,-99.9,-100.00,North,-999,-999.0,-999.0,-999,0.00,,,-99.99,,2013-04-12 14:43:00,
2013-04-12 09:12:00,27.0,-99.9,-100.00,North,-999,-999.0,-999.0,-999,0.00,,,-99.99,,2013-04-12 15:12:00,
2013-04-12 09:22:00,27.0,-99.9,-100.00,North,-999,-999.0,-999.0,-999,0.00,,,-99.99,,2013-04-12 15:22:00,
2013-04-12 09:33:00,27.0,-99.9,-100.00,North,-999,-999.0,-999.0,-999,0.00,,,-99.99,,2013-04-12 15:33:00,
2013-04-12 09:43:00,27.0,-99.9,-100.00,North,-999,-999.0,-999.0,-999,0.00,,,-99.99,,2013-04-12 15:43:00,
2013-04-12 10:14:00,31.0,-99.9,-100.00,North,-999,-999.0,-999.0,-999,0.01,,,0.06,,2013-04-12 16:14:00,
2013-04-12 10:23:00,31.0,-99.9,-100.00,North,-999,-999.0,-999.0,-999,0.01,,,0.06,,2013-04-12 16:23:00,
2013-04-12 10:34:00,31.0,-99.9,-100.00,North,-999,-999.0,-999.0,-999,0.01,,,0.06,,2013-04-12 16:34:00,
2013-04-12 10:43:00,31.0,-99.9,-100.00,North,-999,-999.0,-999.0,-999,0.01,,,0.06,,2013-04-12 16:43:00,
2013-04-12 10:45:00,34.0,-99.9,-100.00,North,-999,-999.0,-999.0,-999,0.00,,,0.06,,2013-04-12 16:45:00,
2013-04-12 11:13:00,34.0,-99.9,-100.00,North,-999,-999.0,-999.0,-999,0.00,,,0.06,,2013-04-12 17:13:00,
2013-04-12 11:23:00,34.0,-99.9,-100.00,North,-999,-999.0,-999.0,-999,0.00,,,0.06,,2013-04-12 17:23:00,
2013-04-12 11:34:00,34.0,-99.9,-100.00,North,-999,-999.0,-999.0,-999,0.00,,,0.06,,2013-04-12 17:34:00,
2013-04-12 13:27:00,40.0,-99.9,-100.00,North,-999,-999.0,-999.0,-999,-99.99,,,0.06,,2013-04-12 19:27:00,
2013-04-12 13:33:00,40.0,-99.9,-100.00,North,-999,-999.0,-999.0,-999,-99.99,,,0.06,,2013-04-12 19:33:00,
2013-04-12 13:44:00,40.0,-99.9,-100.00,North,-999,-999.0,-999.0,-999,-99.99,,,0.06,,2013-04-12 19:44:00,
2013-04-12 14:13:00,42.0,-99.9,-100.00,North,-999,-999.0,-999.0,-999,-99.99,,,0.05,,2013-04-12 20:13:00,
2013-04-12 14:22:00,42.0,-99.9,-100.00,North,-999,-999.0,-999.0,-999,-99.99,,,0.05,,2013-04-12 20:22:00,
2013-04-12 14:33:00,42.0,-99.9,-100.00,North,-999,-999.0,-999.0,-999,-99.99,,,0.05,,2013-04-12 20:33:00,
2013-04-12 14:43:00,42.0,-99.9,-100.00,North,-999,-999.0,-999.0,-999,-99.99,,,0.05,,2013-04-12 20:43:00,
2013-04-12 15:12:00,43.0,-99.9,-100.00,North,-999,-999.0,-999.0,-999,0.00,,,0.05,,2013-04-12 21:12:00,
2013-04-12 15:22:00,43.0,-99.9,-100.00,North,-999,-999.0,-999.0,-999,0.00,,,0.05,,2013-04-12 21:22:00,
2013-04-12 15:33:00,43.0,-99.9,-100.00,North,-999,-999.0,-999.0,-999,0.00,,,0.05,,2013-04-12 21:33:00,
2013-04-12 15:43:00,43.0,-99.9,-100.00,North,-999,-999.0,-999.0,-999,0.00,,,0.05,,2013-04-12 21:43:00,
2013-04-12 16:13:00,45.0,-99.9,-100.00,North,-999,-999.0,-999.0,-999,0.01,,,0.06,,2013-04-12 22:13:00,
2013-04-12 16:23:00,45.0,-99.9,-100.00,North,-999,-999.0,-999.0,-999,0.01,,,0.06,,2013-04-12 22:23:00,
2013-04-12 16:33:00,45.0,-99.9,-100.00,North,-999,-999.0,-999.0,-999,0.01,,,0.06,,2013-04-12 22:33:00,
2013-04-12 16:43:00,45.0,-99.9,-100.00,North,-999,-999.0,-999.0,-999,0.01,,,0.06,,2013-04-12 22:43:00,
2013-04-12 17:12:00,44.0,-99.9,-100.00,North,-999,-999.0,-999.0,-999,0.00,,,0.06,,2013-04-12 23:12:00,
2013-04-12 17:22:00,44.0,-99.9,-100.00,North,-999,-999.0,-999.0,-999,0.00,,,0.06,,2013-04-12 23:22:00,
2013-04-12 17:32:00,44.0,-99.9,-100.00,North,-999,-999.0,-999.0,-999,0.00,,,0.06,,2013-04-12 23:32:00,
2013-04-12 17:43:00,44.0,-99.9,-100.00,North,-999,-999.0,-999.0,-999,0.00,,,0.06,,2013-04-12 23:43:00,
2013-04-12 18:12:00,45.0,-99.9,-100.00,North,-999,-999.0,-999.0,-999,0.00,,,0.06,,2013-04-13 00:12:00,
2013-04-12 18:22:00,45.0,-99.9,-100.00,North,-999,-999.0,-999.0,-999,0.00,,,0.06,,2013-04-13 00:22:00,
2013-04-12 18:32:00,45.0,-99.9,-100.00,North,-999,-999.0,-999.0,-999,0.00,,,0.06,,2013-04-13 00:32:00,
2013-04-12 18:42:00,45.0,-99.9,-100.00,North,-999,-999.0,-999.0,-999,0.00,,,0.06,,2013-04-13 00:42:00,
2013-04-12 19:13:00,40.0,-99.9,-100.00,North,-999,-999.0,-999.0,-999,0.00,,,0.06,,2013-04-13 01:13:00,
2013-04-12 19:23:00,40.0,-99.9,-100.00,North,-999,-999.0,-999.0,-999,0.00,,,0.06,,2013-04-13 01:23:00,
2013-04-12 19:33:00,40.0,-99.9,-100.00,North,-999,-999.0,-999.0,-999,0.00,,,0.06,,2013-04-13 01:33:00,
2013-04-12 19:43:00,40.0,-99.9,-100.00,North,-999,-999.0,-999.0,-999,0.00,,,0.06,,2013-04-13 01:43:00,
2013-04-12 22:12:00,28.0,-99.9,-100.00,North,-999,-999.0,-999.0,-999,-99.99,,,0.06,,2013-04-13 04:12:00,
2013-04-12 22:23:00,28.0,-99.9,-100.00,North,-999,-999.0,-999.0,-999,-99.99,,,0.06,,2013-04-13 04:23:00,
2013-04-12 22:33:00,28.0,-99.9,-100.00,North,-999,-999.0,-999.0,-999,-99.99,,,0.06,,2013-04-13 04:33:00,
2013-04-12 22:43:00,28.0,-99.9,-100.00,North,-999,-999.0,-999.0,-999,-99.99,,,0.06,,2013-04-13 04:43:00,
2013-04-12 23:12:00,28.0,-99.9,-100.00,North,-999,-999.0,-999.0,-999,0.00,,,0.06,,2013-04-13 05:12:00,
2013-04-12 23:23:00,28.0,-99.9,-100.00,North,-999,-999.0,-999.0,-999,0.00,,,0.06,,2013-04-13 05:23:00,
2013-04-12 23:32:00,28.0,-99.9,-100.00,North,-999,-999.0,-999.0,-999,0.00,,,0.06,,2013-04-13 05:32:00,
2013-04-12 23:43:00,28.0,-99.9,-100.00,North,-999,-999.0,-999.0,-999,0.00,,,0.06,,2013-04-13 05:43:00,
2013-04-12 23:45:00,28.0,-99.9,-100.00,North,-999,-999.0,-999.0,-999,-99.99,,,0.05,,2013-04-13 05:45:00,